Regional Weather Roundup
Issued by NWS Charleston, SC

Current Version | Previous Version | Text Only | Print | Product List | Glossary Off
Versions: 1 2 3 4 5 6 7 8 9 10 11 12 13 14 15 16 17 18 19 20 21 22 23 24 25 26 27 28 29 30 31 32 33 34 35 36 37 38 39 40 41 42 43 44 45 46 47 48 49 50

467
ASUS42 KCHS 100427
RWRCHS

REGIONAL WEATHER ROUNDUP
NATIONAL WEATHER SERVICE CHARLESTON SC
1100 PM EST FRI DEC 09 2016

NOTE: "FAIR" INDICATES FEW OR NO CLOUDS BELOW 12,000 FEET WITH NO
SIGNIFICANT WEATHER AND/OR OBSTRUCTIONS TO VISIBILITY.

NOT ALL STATIONS ARE QUALITY CONTROLLED. USE DATA WITH CAUTION...
ESPECIALLY DEWPOINT OBSERVATIONS.

SCZ027-030-031-034>040-042>050-100500-
...SOUTHEAST SOUTH CAROLINA...

CITY           SKY/WX    TMP DP  RH WIND       PRES   REMARKS
N CHARLESTON   PTCLDY    35  25  66 NE7       30.47S WCI  29
WATERFRONT PRK   N/A     43  31  62 NE10      30.45S
MOUNT PLEASANT FAIR      34  28  80 CALM      30.47S
JOHNS ISLAND   FAIR      37  27  65 N6        30.46S WCI  33
PINOPOLIS        N/A     43  25  49 NE13      30.40R
MONCKS CORNER  FAIR      30  27  86 CALM      30.48S
SUMMERVILLE    FAIR      32  32 100 CALM      30.49R
BEAUFORT MCAS  CLEAR     36  27  69 NE9       30.45F WCI  29
BEAUFORT ARPT  FAIR      37  30  75 N8        30.45S WCI  31
HILTON HEAD IS CLEAR     43  25  49 N10       30.45S
WALTERBORO     CLEAR     30 N/A N/A CALM      30.49R
ALLENDALE      FAIR      32  28  86 CALM      30.47R

...SOUTHERN MIDLANDS AND PEE DEE...

CITY           SKY/WX    TMP DP  RH WIND       PRES   REMARKS
GEORGETOWN     NOT AVBL
KINGSTREE      FAIR      28  25  86 CALM      30.49R
ORANGEBURG     CLEAR     30  27  88 CALM      30.48R
BARNWELL       NOT AVBL
AIKEN          FAIR      28  23  80 CALM      30.50S
MANNING        FAIR      28  27  93 CALM      30.49R
COLUMBIA       CLEAR     29  25  85 W3        30.49R
SUMTER         CLEAR     30  22  73 CALM      30.46R
FLORENCE       CLEAR     28  21  75 CALM      30.49R
MYRTLE BEACH   CLEAR     34  25  69 N7        30.50R WCI  28
N MYRTLE BEACH CLEAR     30  24  78 NE5       30.47S WCI  25

$$

GAZ063-065-086>088-099>101-113>116-118-119-134>141-150-100500-
...SOUTHEAST GEORGIA...

CITY           SKY/WX    TMP DP  RH WIND       PRES   REMARKS
SAVANNAH ARPT  PTCLDY    35  28  75 N5        30.45S WCI  31
HUNTER AAF     CLEAR     40  29  64 CALM      30.42S
FORT STEWART   CLEAR     33  28  81 CALM      30.42S
STATESBORO     CLEAR     32  31  99 CALM      30.45F
SYLVANIA       CLEAR    N/A N/A N/A CALM      30.47S
CLAXTON        FAIR      33  33 100 CALM      30.45S

...CSRA...CENTRAL AND FAR SOUTHEAST GEORGIA...

CITY           SKY/WX    TMP DP  RH WIND       PRES   REMARKS
THOMSON        CLEAR     29  28  99 CALM      30.51S
AUGUSTA-BUSH   CLEAR     30  25  81 CALM      30.48R
AUGUSTA-DANIEL CLEAR     37  21  52 CALM      30.47R
SWAINSBORO     FAIR      36  27  69 NE3       30.46S
VIDALIA        CLEAR     36  30  80 N5        30.45S WCI  32
EASTMAN        FAIR      31  27  84 CALM      30.49S
HAZLEHURST     FAIR      36  30  79 CALM      30.44R
ALMA           CLEAR     33  28  81 CALM      30.44R
WAYCROSS       CLEAR     36  34  92 CALM      30.44S
JESUP          FAIR      32  32 100 CALM      30.45S
BAXLEY         FAIR      34  34 100 CALM      30.43S
BRUNSWICK      CLEAR     37  32  81 CALM      30.45S
SAINT SIMONS   CLEAR     41  30  65 N5        30.43S

$$

SCZ027-028-034-036>038-045-046-048>050-GAZ119-141-100500-
...LAKE AND SUPPLEMENTAL COASTAL OBSERVATIONS...

STATION/POSITION TIME  TEMP    WIND        PRES    WAVE   SWELL
                       AIR SEA DIR/SP/G            HT/PER HT/PER/DIR
                 (UTC) (F)     (DEG/KT/KT) (MB)    (FT/S) (FT/S/D)
WINYAH BAY       0330   34     340/  5     1032.0R
LAKE MURRAY      0320   36      CALM  /  2 1031.2R
ACE BASIN NERRS  0345   35     350/  1     1031.0S
FORT PULASKI     0400   44 60   30/  7/  9 1031.0
SAPELO ISLAND    0400   39      20/  4     1031.0

$$

ANZ835-935-AMZ111-154-330-350-352-354-370-450-454-472-100500-
...C-MAN AND BUOY OBSERVATIONS...

STATION/POSITION TIME  TEMP    WIND        PRES    WAVE   SWELL
                       AIR SEA DIR/SP/G            HT/PER HT/PER/DIR
                 (UTC) (F)     (DEG/KT/KT) (MB)    (FT/S) (FT/S/D)
BUOY 41004       0350   49 72  360/ 16/ 23 1029.9F   4/ 5
BUOY 41008       0350   51 62   30/ 14/ 17 1030.2R   3/ 6   2/ 90/ 7
FOLLY BEACH CMAN 0400   44      10/ 16/ 18 1031.7S
CAPERS NEARSHORE 0408   45 60   20/ 16/ 19 1031.2F
FRIPP NEARSHORE  0408   47 60   20/ 16/ 21 1030.6F


STATION/POSITION TIME  TEMP    WIND        PRES    WAVE   SWELL
                       AIR SEA DIR/SP/G            HT/PER HT/PER/DIR
                 (UTC) (F)     (DEG/KT/KT) (MB)    (FT/S) (FT/S/D)
5E ST. MARYS GA  0400      64                N/A     3/ 4
FRYING PAN BUOY  0410   45 72  350/ 14/ 19 1031.0
BUOY 41025       0350   42 77   10/ 16/ 21 1029.8R   5/ 8   3/ 50/ 8
CAPE LOOKOUT NC  0400   38     350/  9/ 11 1030.6R
BUOY 41002       0350   58 73  360/ 14/ 17 1026.8S   6/ 8   3/ 10/ 8
BUOY 41010       NOT AVBL
ST AUGUSTINE FL  0400   55 64   20/ 18/ 21 1029.8F


$$




USA.gov is the U.S. government's official web portal to all federal, state and local government web resources and services.